Wind_Speed
13 12 12 12 11 11 10 10 9 9 8 7 6 6 6 6 6 7 7 7 8 9 9 10 10 10 10 10 10 10 10 10 10 9 9 9 10 10 11 12 13 13 14 14 15 14 13 12 10 10 9 8 6 4 3 2 1 1 2 2 2 1 0 2 3 4 3 4 5 4 3 3 3 1 2 3 2 4 4 5 7 7 7 8 6 2 4 8
13 13 13 13 12 12 11 11 10 10 9 9 8 8 8 8 8 8 8 9 9 10 10 10 11 11 12 12 12 11 11 11 11 11 10 9 10 11 11 12 12 12 13 15 16 16 15 14 13 12 11 10 8 6 5 4 2 1 1 1 1 2 2 1 1 2 3 3 4 5 4 4 4 2 1 2 2 3 4 3 5 7 7 7 7 4 4 8
12 12 12 12 12 12 12 12 12 11 11 10 10 9 9 9 9 9 10 10 11 12 12 12 12 12 12 12 13 12 12 12 12 12 11 11 11 11 11 12 12 12 13 15 16 17 16 16 14 13 12 11 9 9 9 7 5 4 2 2 2 2 3 3 2 1 2 3 4 5 5 5 6 5 3 0 1 2 3 3 2 4 6 7 7 5 4 7
10 10 11 11 11 12 12 12 13 12 12 12 11 11 11 11 11 11 11 12 12 13 14 14 14 14 14 13 13 13 13 14 13 12 12 12 12 12 12 12 13 13 14 15 16 17 17 16 15 14 12 11 10 10 11 10 8 7 5 4 4 3 3 4 3 3 3 2 4 6 6 6 8 7 4 2 1 2 3 4 2 2 4 6 7 6 5 7
9 9 10 10 11 11 12 13 13 13 13 13 13 13 13 13 13 13 14 14 14 14 14 15 16 16 15 15 14 13 14 14 13 14 14 14 14 13 13 13 14 14 15 15 16 18 18 17 16 15 13 11 10 11 11 12 11 10 8 7 7 6 5 5 5 5 5 3 3 6 8 8 9 9 5 5 4 4 5 5 5 4 4 4 6 6 6 7
8 9 9 10 11 12 13 13 14 14 14 14 14 14 14 14 15 15 16 16 16 16 16 16 16 17 17 17 16 14 14 14 14 15 15 15 15 15 14 15 15 15 15 15 17 18 19 18 17 16 13 12 11 11 12 12 12 11 11 10 10 9 8 8 7 7 6 6 5 5 8 9 11 11 6 7 6 5 7 7 6 6 6 4 4 5 6 7
8 9 10 10 11 12 13 14 14 15 15 15 15 15 16 16 16 17 18 18 18 18 17 17 16 17 17 17 17 16 15 14 14 15 16 16 16 16 16 16 16 16 16 16 17 18 19 19 18 16 14 13 12 12 12 11 11 11 12 13 12 12 11 11 11 10 8 9 8 7 9 10 13 13 8 9 8 7 8 8 8 7 8 7 4 4 5 6
8 9 10 11 12 13 14 15 15 16 16 16 16 17 17 17 18 19 20 20 20 20 19 18 17 17 17 17 17 17 16 14 14 14 15 16 16 17 17 17 17 17 17 17 18 19 19 19 17 16 14 13 12 13 13 12 11 11 12 14 14 14 14 14 14 13 12 10 10 10 11 13 14 13 9 11 10 9 10 9 9 9 9 8 6 4 5 5
8 9 10 11 12 13 14 15 16 17 17 17 17 18 18 19 20 21 22 22 22 20 19 18 17 17 17 17 17 17 17 16 15 13 14 15 16 17 18 18 18 18 18 19 20 20 20 19 17 15 13 13 13 13 12 11 12 12 13 14 14 15 16 16 16 16 15 13 13 12 13 15 15 13 11 12 12 11 11 10 10 10 9 9 7 5 4 5
8 9 10 11 12 14 15 16 17 18 18 18 18 19 19 20 21 23 24 24 23 20 18 17 16 16 16 16 17 17 16 16 16 14 14 14 15 16 18 18 19 19 20 20 21 21 20 18 17 15 13 13 13 13 12 11 13 13 14 14 14 15 16 16 16 16 15 15 15 15 17 17 14 14 15 14 14 12 12 11 11 10 10 9 8 6 5 5
9 10 11 12 13 14 16 17 18 19 19 19 19 20 20 21 23 25 25 24 22 19 17 16 15 15 15 16 16 16 15 16 16 16 15 15 15 16 17 18 19 20 20 21 21 21 20 19 18 15 13 13 13 13 13 12 13 14 14 14 15 15 15 15 15 15 14 13 14 15 15 13 17 18 17 17 15 14 12 12 11 11 10 9 8 7 6 6
9 10 11 12 14 15 16 18 19 19 20 20 20 21 22 23 25 26 25 23 20 18 16 15 14 14 15 15 15 15 15 15 16 16 15 15 15 16 17 18 19 20 20 21 22 22 21 20 19 15 13 14 14 14 14 14 14 14 14 15 15 15 15 15 15 13 11 10 11 13 9 10 18 20 19 17 15 14 13 12 12 12 11 10 9 8 7 6
10 11 12 13 14 15 17 18 19 20 21 21 21 22 23 24 26 26 24 21 18 16 15 14 14 13 13 13 13 14 14 14 14 14 14 14 15 15 16 17 18 19 20 21 22 22 21 21 19 15 14 15 15 15 15 14 14 13 13 13 12 13 14 14 14 11 9 8 8 9 8 9 14 20 21 17 15 14 14 13 13 12 12 11 9 9 8 7
10 11 12 13 14 16 17 18 20 20 21 21 22 23 24 25 25 24 22 19 16 16 15 14 13 12 12 11 11 11 12 12 12 12 13 13 14 15 15 16 18 19 20 21 22 22 21 21 19 16 15 15 15 15 15 14 14 13 11 11 10 11 13 14 13 9 7 7 5 6 7 8 14 21 19 16 15 15 14 14 14 13 12 12 11 9 9 8
11 12 12 14 15 16 17 19 20 21 21 22 22 23 24 25 25 22 19 17 16 15 15 14 13 11 10 10 9 9 9 9 10 10 11 12 13 14 15 16 17 18 19 20 21 21 21 20 20 18 15 16 16 15 15 14 14 14 12 10 10 12 13 14 12 9 7 7 6 6 7 13 18 18 16 14 14 16 15 14 15 14 13 12 12 11 10 9
12 12 13 14 15 17 18 19 20 21 21 22 22 23 24 24 22 20 17 16 15 15 14 13 11 10 9 8 8 7 7 7 8 8 9 11 11 12 13 14 15 16 18 19 20 20 20 20 20 18 15 16 16 15 15 14 14 16 14 12 11 11 12 12 11 8 8 7 6 7 10 15 17 15 14 13 13 15 15 15 15 14 14 13 13 11 10 10
12 13 14 15 16 17 18 19 20 21 21 22 22 23 23 22 20 18 16 16 15 14 13 11 10 9 8 7 6 6 5 5 5 6 7 8 9 9 10 11 12 14 15 17 18 19 20 20 20 18 16 16 16 15 15 15 15 16 15 14 13 11 11 11 10 8 8 7 7 10 13 15 15 14 14 11 12 14 15 16 16 15 14 13 13 12 11 11
14 14 15 16 17 18 19 20 20 21 21 21 22 22 22 20 19 17 16 16 15 14 12 10 9 8 7 7 6 4 4 4 4 4 5 6 6 6 7 8 9 11 13 15 17 18 19 20 20 19 17 17 17 17 18 19 19 16 15 15 14 13 13 13 10 8 9 8 9 12 15 16 15 15 13 10 11 13 15 15 15 15 15 14 13 13 12 11
15 15 16 16 17 18 19 19 20 21 21 21 21 21 20 19 17 16 16 15 14 13 11 10 8 7 6 6 5 3 3 2 3 3 3 4 4 3 3 4 6 8 10 12 14 16 17 19 19 19 19 20 20 21 22 22 21 18 16 15 15 15 15 16 12 9 11 11 11 12 14 15 15 14 12 10 10 11 13 14 14 15 15 15 14 13 13 12
16 17 17 17 18 18 19 19 20 20 21 21 21 20 19 17 16 15 15 15 14 12 10 9 7 5 4 4 3 3 2 2 3 3 3 3 3 2 2 2 3 4 6 8 10 13 16 18 19 21 21 21 22 23 23 22 22 21 18 17 15 13 13 16 14 11 12 13 13 14 13 13 14 13 11 10 9 9 11 13 14 15 15 16 15 14 13 12
18 18 18 18 18 19 19 19 20 20 20 21 20 19 18 16 14 15 15 14 13 11 8 6 4 3 3 3 3 4 3 3 3 3 3 3 3 2 2 2 2 2 3 4 7 10 13 16 19 20 21 21 22 24 23 22 23 22 22 20 16 14 15 17 16 14 13 15 15 15 15 14 14 13 12 10 9 9 11 13 14 16 16 16 16 15 14 12
18 19 19 19 19 19 19 19 20 20 20 20 19 18 16 14 14 14 14 13 11 8 5 3 2 1 2 3 3 3 3 3 3 3 3 3 3 3 3 3 3 3 3 4 5 7 10 14 16 17 19 20 22 23 23 22 22 22 23 21 19 19 19 17 18 17 15 15 17 17 16 15 14 14 12 12 11 11 11 12 13 15 15 16 17 16 15 13
19 19 19 19 19 19 19 18 19 20 19 19 18 17 15 14 14 14 13 12 10 7 4 2 2 1 1 1 1 1 2 2 3 3 3 3 3 3 4 4 4 5 4 5 5 6 8 10 11 13 16 19 20 22 22 22 22 23 23 21 20 22 22 20 20 20 18 18 17 15 15 14 13 13 14 14 14 13 12 12 13 13 14 15 15 16 15 15
20 20 20 20 19 19 18 18 19 19 18 18 17 16 14 14 14 14 13 11 9 6 4 3 3 3 3 2 2 1 1 1 2 2 3 3 3 4 5 5 6 7 6 7 7 7 7 6 7 8 11 15 18 20 21 22 23 24 24 23 22 23 25 23 21 21 22 21 19 14 12 13 14 14 15 16 15 14 13 12 12 13 14 14 13 14 15 15
21 20 20 20 19 19 18 18 18 18 18 17 16 15 14 13 14 14 12 11 8 6 5 4 3 3 3 2 2 2 1 1 1 2 3 3 4 5 6 7 8 8 8 8 8 8 7 5 5 5 7 11 14 18 20 22 24 23 23 24 24 25 26 24 22 21 22 21 21 18 14 13 15 16 16 17 17 17 16 14 13 15 15 13 13 13 14 16
21 21 20 19 19 18 18 17 17 17 17 16 15 14 13 12 13 13 12 10 8 7 7 5 3 3 2 2 1 1 1 1 1 2 2 3 4 5 6 8 8 9 9 9 9 9 7 5 4 3 4 6 10 15 19 22 22 22 24 26 26 27 26 24 23 22 23 25 24 23 20 15 15 15 16 18 20 20 18 16 15 15 14 13 14 14 14 15
21 20 20 19 19 18 17 16 16 16 15 14 14 13 12 12 12 13 11 9 9 8 7 6 4 3 2 1 1 2 2 1 1 2 2 3 4 5 6 7 8 9 10 9 10 9 7 6 5 3 3 4 8 12 16 20 21 23 26 25 25 27 26 25 25 24 27 28 25 23 22 19 16 15 15 17 21 22 20 19 18 18 16 15 15 15 15 16
21 20 20 19 18 17 16 16 15 15 14 14 13 12 11 11 12 12 10 9 9 8 7 7 5 4 3 2 1 2 2 1 1 1 2 3 4 5 6 7 8 9 9 10 11 9 7 7 6 4 4 4 7 11 14 18 21 24 24 23 26 28 27 27 27 27 27 25 23 24 23 22 21 18 17 18 21 23 23 22 22 22 21 19 18 17 17 17
21 20 19 19 18 17 16 15 14 14 13 13 12 11 11 11 11 11 10 9 8 7 7 7 6 4 3 2 1 2 2 1 0 1 3 4 4 5 6 7 8 9 9 10 10 9 8 8 7 6 6 6 7 9 12 16 20 23 22 23 26 27 27 27 26 26 24 21 23 24 22 24 25 20 16 18 20 21 22 22 21 21 21 21 19 19 19 19
21 20 19 19 18 17 15 15 14 13 12 12 11 11 10 10 11 11 10 9 8 8 8 7 6 5 5 4 2 2 1 0 1 2 3 4 5 6 7 8 8 8 8 8 9 9 9 9 9 8 7 7 7 7 10 14 18 21 21 23 25 26 28 28 26 25 22 20 23 24 23 25 26 22 17 17 18 17 19 21 20 20 20 21 21 20 20 20
21 20 20 19 18 17 16 14 13 13 12 12 11 10 10 11 11 11 10 9 8 8 8 7 7 7 6 5 4 2 1 0 1 2 3 5 5 6 7 7 8 7 7 8 9 9 10 10 10 10 8 8 8 8 8 11 16 19 20 21 23 25 27 27 27 27 23 23 25 25 25 26 26 24 19 18 17 15 16 19 19 19 20 22 24 24 23 22
21 21 20 20 18 17 16 15 14 13 12 12 11 10 10 11 11 11 11 11 9 8 8 8 8 7 7 7 6 4 2 2 2 2 4 5 5 6 7 7 8 6 5 8 10 9 11 12 11 10 10 9 9 9 9 9 13 17 19 20 20 22 25 25 27 27 24 26 27 26 26 26 28 25 20 19 18 17 17 18 19 21 21 22 24 26 27 26
21 21 21 20 19 18 16 15 15 14 12 12 11 10 10 11 11 11 12 12 11 9 9 8 8 8 7 7 7 5 3 3 3 3 4 5 5 6 7 7 8 8 7 9 10 9 10 13 13 13 11 11 10 10 10 9 11 14 18 19 16 16 20 22 25 26 26 26 27 27 26 25 27 26 22 22 21 20 21 20 20 22 22 20 20 24 27 27
22 21 21 21 20 19 17 16 16 14 13 13 12 11 11 11 12 12 13 13 11 10 9 8 9 9 8 8 8 7 4 3 4 4 4 5 5 7 7 7 9 11 10 10 11 11 8 9 13 14 13 12 12 12 12 11 11 13 16 17 15 12 13 16 20 23 26 27 27 26 27 26 26 25 25 26 26 24 23 23 22 22 23 22 19 20 25 27
23 22 22 21 21 19 18 17 17 16 15 14 14 13 12 12 12 12 13 13 12 11 10 9 9 9 9 9 9 8 6 5 5 5 5 6 7 8 9 9 9 11 11 10 11 14 13 13 14 14 14 14 13 13 13 11 10 13 16 17 16 13 13 17 21 22 24 28 30 28 27 27 25 24 24 26 26 25 24 24 22 21 23 24 22 19 21 25
25 23 23 22 21 20 19 18 18 17 16 16 15 14 14 14 13 13 12 13 13 11 10 10 9 9 10 9 10 10 8 7 6 6 6 7 8 9 9 10 10 11 12 12 12 13 12 14 16 15 14 15 14 14 14 12 10 11 13 17 19 18 18 20 24 26 26 29 32 30 27 27 26 24 24 24 24 24 23 23 22 21 21 22 24 22 19 20
25 25 24 23 22 21 20 20 19 18 18 17 17 16 16 15 14 13 12 12 12 12 11 11 10 9 10 10 11 11 10 9 8 8 8 8 9 9 10 11 11 11 12 13 14 14 12 11 14 16 15 15 16 15 15 15 15 12 11 14 18 20 22 21 22 26 26 27 32 31 27 26 26 25 24 24 24 24 23 23 22 22 21 21 21 22 21 20
26 26 25 24 23 22 22 21 20 20 19 19 18 18 18 17 15 13 12 12 12 12 12 12 11 10 11 11 12 12 11 11 10 10 9 9 9 9 10 11 11 12 13 13 14 16 14 11 12 16 17 16 16 16 14 15 17 16 14 15 16 17 18 21 23 23 21 21 24 27 29 27 24 23 23 24 25 24 23 23 23 21 21 20 18 19 21 22
26 26 26 25 25 24 23 22 21 21 20 20 19 19 19 18 15 13 13 13 12 12 13 13 12 12 12 12 13 13 13 12 12 12 11 11 10 10 10 11 12 12 13 14 15 15 15 12 9 13 17 16 15 15 14 14 15 16 17 18 19 18 18 18 21 22 22 19 17 20 27 28 24 22 23 26 26 25 24 23 23 22 21 19 18 18 20 20
27 27 27 27 26 25 24 23 23 22 21 21 21 21 21 19 17 15 14 14 13 13 14 14 13 14 13 13 14 14 14 14 13 14 13 13 13 12 12 12 12 13 13 14 15 14 16 15 11 12 14 13 15 16 16 16 15 14 15 15 16 19 20 20 21 22 23 23 21 21 24 28 26 22 23 27 28 27 27 25 24 23 21 20 19 19 20 20
27 28 28 27 27 26 25 25 24 23 22 22 23 23 22 20 18 16 15 15 14 14 15 15 15 15 15 15 14 14 14 15 14 15 15 15 15 14 14 13 13 13 13 14 14 14 16 16 15 15 13 12 15 16 17 19 19 17 17 16 15 16 18 20 21 21 23 26 28 27 26 28 28 24 25 29 29 28 27 26 25 23 22 22 21 21 21 20
28 28 28 28 28 27 27 26 25 24 23 23 24 24 22 20 19 18 17 16 15 15 16 16 15 15 15 15 15 14 14 14 15 15 16 16 16 15 14 13 13 13 13 14 14 13 15 15 16 18 17 15 16 17 17 19 20 20 21 20 19 18 17 19 20 20 22 26 29 31 31 30 27 25 28 32 31 29 27 25 25 25 24 23 21 21 22 21
29 28 28 29 29 29 28 27 26 25 25 25 25 24 23 22 21 20 18 17 16 16 17 17 16 16 15 15 15 14 14 14 15 16 17 17 17 17 15 14 14 14 14 14 13 12 13 14 15 18 19 19 19 18 18 19 19 21 23 21 21 20 19 21 23 22 22 24 27 30 33 33 29 26 31 36 34 29 26 26 26 26 25 24 21 20 20 21
29 29 28 28 29 29 29 28 27 27 26 26 26 26 24 23 23 22 20 18 18 17 17 18 17 16 16 15 15 14 14 14 15 16 17 17 18 18 17 16 15 15 15 14 13 11 11 12 13 15 16 16 18 18 18 19 19 21 22 21 21 22 22 23 25 25 25 27 27 28 32 33 28 27 32 39 38 30 26 25 27 26 25 25 24 22 20 19
29 29 28 28 29 30 30 29 28 28 27 26 27 26 24 24 25 24 21 19 19 18 18 18 18 17 16 15 15 14 14 14 15 16 17 18 18 18 18 17 17 16 15 15 13 12 12 11 12 13 12 10 12 16 17 18 19 19 20 20 20 22 24 25 26 26 28 30 29 29 31 30 26 26 31 38 38 31 26 25 25 25 24 24 24 23 23 21
28 28 28 28 28 29 30 29 29 28 27 26 27 26 25 25 25 24 22 21 20 20 19 19 18 17 16 15 15 15 14 14 15 17 18 19 20 19 19 19 18 17 16 15 15 14 13 13 12 13 14 13 14 17 19 19 20 20 19 19 20 21 23 26 27 27 28 29 30 30 30 29 28 26 28 33 34 29 25 24 25 24 22 23 23 23 23 23
28 28 28 27 27 28 29 29 29 28 27 26 27 26 25 26 26 25 23 22 21 21 20 19 18 17 15 15 15 15 14 14 14 15 18 20 20 21 21 20 20 19 17 16 16 15 14 14 13 14 15 17 18 19 20 21 22 22 21 20 20 21 22 25 27 26 26 26 26 27 27 27 28 25 23 27 32 29 25 25 24 22 22 22 22 23 24 24
28 28 27 27 28 27 27 27 27 27 27 27 26 26 26 27 27 25 24 23 22 21 20 20 18 16 15 15 15 14 14 14 14 15 17 19 21 22 22 21 20 20 19 17 16 15 14 14 14 14 15 16 16 17 18 19 21 21 21 21 21 21 22 23 24 25 25 26 25 24 24 25 26 24 20 21 27 28 26 26 24 23 23 23 23 24 26 26
27 27 27 27 27 27 27 26 26 26 27 27 26 26 26 27 27 26 25 23 22 22 21 19 17 16 16 16 15 14 14 14 15 16 17 19 21 23 23 22 20 19 19 18 17 15 15 14 13 13 13 14 15 16 17 18 19 20 20 20 20 21 22 22 23 23 24 27 26 24 25 26 25 23 21 21 24 24 23 25 25 24 24 25 27 27 28 30
26 26 26 25 26 26 26 26 26 26 26 26 26 26 26 27 27 26 25 23 22 22 21 18 18 17 17 17 16 14 14 15 16 16 17 18 20 22 23 22 21 19 18 18 17 16 15 14 12 11 11 12 13 15 17 18 19 19 18 18 18 20 21 22 23 23 23 24 25 24 24 26 26 24 24 24 23 22 22 25 26 26 25 27 30 29 27 28
24 24 24 24 25 25 26 26 25 26 26 26 26 27 27 28 28 26 25 24 23 23 22 20 20 20 20 18 15 14 15 16 16 15 16 16 18 20 22 22 21 20 19 18 18 17 15 14 12 11 11 12 12 13 16 18 19 19 18 17 18 19 20 21 23 24 24 24 24 23 24 26 26 26 26 26 25 24 23 25 26 27 26 27 30 30 23 19
23 23 23 23 23 24 25 25 25 26 26 26 26 26 27 28 27 26 26 25 23 23 23 22 23 23 21 17 15 15 17 17 14 13 14 14 16 18 20 20 20 20 19 19 18 17 16 14 13 12 13 14 13 13 14 14 16 18 18 17 18 18 20 21 23 24 25 25 24 22 23 25 26 27 27 26 28 28 25 23 24 26 27 27 29 31 28 21
Wind_Direction
57 54 51 48 45 41 37 34 30 27 23 17 10 2 353 343 333 323 315 307 302 299 298 297 295 293 290 287 283 279 277 275 270 264 254 243 242 241 237 236 236 237 238 239 243 245 245 245 244 245 247 248 248 259 266 259 260 356 3 53 58 298 343 67 43 32 28 25 28 20 344 333 353 19 60 54 83 99 102 119 125 125 123 118 110 136 166 134
52 49 46 43 39 35 31 27 24 20 15 10 4 357 348 340 330 320 313 306 300 296 295 295 293 292 289 287 285 282 279 274 269 266 260 250 244 242 239 239 238 237 237 238 242 245 246 246 246 246 247 249 252 261 263 258 251 280 305 39 20 305 307 345 23 20 9 8 4 0 339 308 316 316 293 52 77 106 97 102 120 126 128 127 121 134 170 141
50 46 42 38 34 30 27 23 19 15 10 5 1 356 349 342 331 322 314 306 300 295 291 290 291 292 291 288 284 282 279 272 268 266 263 257 249 245 241 240 240 237 236 238 242 245 247 247 247 247 247 249 254 258 260 259 257 259 264 273 294 292 293 300 313 319 332 354 337 336 334 297 294 300 279 22 66 142 120 102 100 127 136 137 128 134 172 148
45 42 37 33 29 25 21 17 14 10 6 1 357 353 349 344 338 330 321 312 304 297 292 287 285 287 289 290 286 281 276 271 269 266 263 259 253 249 243 240 240 238 238 240 244 247 248 249 249 250 250 252 254 255 256 258 257 257 254 252 262 263 271 281 286 285 291 320 319 323 327 301 286 296 280 222 162 196 161 133 138 132 137 146 138 137 166 152
37 32 28 24 20 16 13 10 7 4 360 356 352 349 346 342 339 335 329 322 313 304 296 289 284 282 284 286 287 283 276 271 267 263 260 257 253 251 245 241 239 239 240 241 245 249 251 252 252 253 253 255 256 255 255 255 254 257 257 255 257 254 254 263 268 272 280 285 300 319 323 308 286 291 276 226 208 197 184 153 144 128 125 149 146 144 161 156
26 21 17 13 10 7 4 2 360 357 353 350 346 343 341 339 337 335 332 327 319 311 301 293 286 281 279 280 283 282 277 271 263 259 257 255 253 250 247 243 240 239 239 241 244 248 251 253 254 255 256 256 256 257 257 256 256 255 258 260 260 259 256 256 258 263 275 277 283 308 310 303 284 284 273 231 220 202 189 165 151 136 129 140 147 152 163 164
15 12 8 5 2 359 357 355 353 350 348 344 342 339 337 336 335 334 331 327 321 314 305 295 287 282 279 278 278 276 275 271 263 258 255 253 251 249 247 244 242 239 238 240 243 247 250 252 255 256 257 257 256 258 259 261 261 259 261 263 263 265 265 266 268 267 271 275 283 295 293 290 277 274 265 230 217 207 197 172 157 145 134 140 153 170 174 175
4 2 360 358 356 354 352 350 347 345 343 340 338 336 335 334 333 332 330 326 321 314 306 296 288 283 279 278 277 274 272 270 265 260 255 252 249 248 246 244 243 240 238 239 242 246 248 250 253 255 257 258 257 257 259 263 264 264 263 264 266 269 272 274 278 280 280 280 285 290 286 281 270 262 248 225 210 206 202 180 165 153 143 146 156 183 188 184
354 353 352 352 351 350 348 346 343 341 339 337 336 334 333 333 331 330 329 326 321 314 306 296 289 284 280 278 277 273 270 266 264 261 256 251 248 246 245 244 243 241 239 238 241 245 247 249 251 252 255 256 255 255 256 258 259 260 260 263 267 270 274 275 279 282 284 287 285 284 279 272 263 246 226 211 202 204 201 184 173 160 151 152 156 177 195 191
345 346 346 347 347 346 345 343 341 339 337 336 335 333 332 331 330 329 328 326 321 315 307 298 290 284 281 279 276 273 268 264 262 258 255 251 246 243 243 243 242 240 239 237 240 244 247 249 250 250 252 253 254 255 253 251 252 254 257 261 265 268 273 275 279 282 284 287 284 283 278 264 248 230 211 198 193 200 199 186 178 165 156 156 155 167 190 194
339 341 343 344 345 344 343 341 339 338 336 335 334 333 332 331 330 330 329 326 323 317 309 300 292 286 282 279 276 272 267 263 259 255 253 250 246 242 240 239 240 240 240 239 240 244 246 247 247 245 246 249 251 253 252 249 250 253 257 260 263 266 272 276 281 284 284 283 283 289 286 251 225 212 196 189 189 194 195 187 181 168 157 158 158 165 183 190
337 339 341 342 343 342 341 340 339 337 336 334 333 332 332 331 331 331 330 328 324 319 311 303 295 289 284 279 275 271 266 261 258 255 252 249 247 243 240 238 239 240 241 240 241 244 245 245 245 241 239 243 245 249 250 248 249 253 257 259 264 269 273 276 279 285 282 274 277 284 285 247 222 198 180 186 188 188 192 186 183 173 160 158 164 169 177 187
335 336 339 341 341 340 340 339 338 336 335 333 333 332 332 332 333 333 332 330 326 320 313 305 299 292 287 281 275 271 266 261 256 252 248 244 243 241 239 238 237 239 240 241 242 244 245 245 245 239 233 236 240 244 247 248 248 251 256 259 266 272 273 273 274 281 270 260 275 266 259 258 218 182 176 186 182 183 189 185 183 178 167 159 165 172 176 188
333 334 336 338 338 338 338 338 337 335 334 333 332 332 333 334 335 335 334 331 327 320 315 308 302 297 290 284 278 272 267 262 256 249 244 239 237 236 237 236 235 236 237 239 241 243 244 245 246 239 230 231 235 239 243 246 245 245 250 256 259 263 267 268 269 272 253 245 261 241 228 213 182 170 177 182 177 183 186 184 183 180 174 163 163 173 177 188
330 332 334 335 336 337 337 336 336 335 334 333 333 334 335 336 336 337 335 331 325 320 316 311 306 302 295 289 283 276 270 263 256 249 243 237 234 233 233 234 234 234 235 237 239 241 243 244 244 240 230 229 232 234 239 240 241 238 235 242 247 251 261 264 263 255 237 238 237 213 190 172 166 167 179 179 177 184 183 184 185 181 179 169 163 172 180 188
327 329 331 333 334 335 336 336 335 335 334 334 334 335 336 337 337 337 334 328 323 320 318 314 310 305 299 294 288 282 274 264 256 249 244 238 233 231 230 231 233 233 234 236 237 239 240 242 242 239 230 228 228 229 235 236 239 237 226 228 239 243 254 260 255 240 228 234 221 183 165 165 166 169 178 178 177 185 187 187 187 183 181 176 166 169 183 192
324 327 328 330 332 333 335 335 335 334 334 334 335 336 336 337 337 335 330 325 322 321 318 315 311 305 299 294 288 283 277 267 258 250 244 239 233 228 226 227 229 231 232 234 235 235 236 238 240 237 227 224 225 226 230 231 232 234 227 224 233 239 247 253 247 226 216 229 219 185 172 173 176 176 179 176 177 189 193 190 188 185 182 181 172 169 185 196
321 324 325 328 329 331 333 334 334 333 334 335 335 336 336 337 336 331 326 324 323 321 318 315 310 304 297 290 284 276 268 262 254 243 236 232 228 222 221 222 224 227 229 231 232 232 234 235 236 236 227 221 220 219 222 227 225 223 223 224 227 232 235 240 239 216 208 222 219 198 189 188 187 186 185 183 186 194 199 197 193 187 183 184 179 176 185 195
318 321 322 325 327 329 330 332 332 332 333 334 335 335 336 336 333 328 325 325 325 322 318 316 311 304 294 286 279 267 251 235 232 226 219 217 207 200 207 212 217 223 228 232 233 232 233 233 233 232 226 219 216 216 222 229 227 217 215 219 221 226 230 231 226 208 207 215 217 208 203 202 198 195 194 195 199 199 201 203 199 193 187 185 186 186 188 192
316 318 319 322 323 325 328 330 330 330 331 333 334 334 335 334 330 325 325 326 326 324 320 317 312 303 289 277 270 266 249 226 221 212 204 196 177 162 177 198 203 212 223 228 229 230 232 232 231 230 227 221 217 219 223 228 228 221 217 219 222 226 232 230 217 202 206 213 215 214 210 205 201 202 202 201 205 206 203 203 203 199 192 188 191 195 196 192
314 315 317 319 320 322 326 328 328 328 330 332 332 333 333 331 326 325 325 326 325 323 318 315 309 290 259 245 248 252 251 244 232 219 209 194 179 170 187 206 204 208 213 213 218 223 228 231 232 233 231 225 220 220 221 223 226 225 221 218 219 219 224 227 216 199 205 214 214 215 213 206 203 206 206 202 203 207 208 207 205 203 198 193 192 198 202 198
313 313 314 316 317 320 323 325 326 327 329 330 331 332 331 327 323 322 324 326 324 321 319 318 322 292 230 213 217 225 232 236 228 224 223 211 203 198 204 219 227 226 217 215 219 219 226 232 234 234 231 226 222 220 221 222 224 227 225 220 220 219 217 224 220 202 200 210 211 215 216 210 207 207 206 205 205 205 211 215 214 210 206 200 195 197 199 199
312 312 312 313 314 317 321 323 324 325 327 328 329 330 328 323 319 319 323 325 322 318 323 338 1 19 89 162 182 199 207 214 214 215 221 219 216 214 218 227 233 234 228 223 222 218 227 237 238 236 233 231 227 223 221 220 223 229 229 223 225 224 217 218 220 209 201 201 204 214 222 217 214 212 208 208 209 206 209 218 221 218 214 209 203 199 195 196
312 311 310 311 312 315 319 321 321 323 325 326 327 327 325 320 316 317 322 323 317 312 325 349 10 27 31 17 21 55 115 182 215 218 224 226 223 225 228 231 234 236 232 228 226 229 240 250 245 239 236 233 230 226 221 218 220 228 231 228 230 230 223 217 218 215 209 205 202 208 223 225 221 219 214 211 212 211 208 213 219 221 220 215 209 203 195 194
310 309 309 309 310 313 316 318 319 321 323 324 325 324 322 317 314 316 319 317 311 310 325 345 5 23 26 21 26 39 57 61 241 238 242 239 235 237 236 238 240 239 236 236 238 246 257 260 255 252 242 236 232 228 222 218 219 225 230 231 230 232 229 223 221 220 217 217 214 209 212 224 226 227 226 219 216 213 208 206 211 218 221 218 214 210 199 194
308 307 307 307 307 310 313 315 318 319 320 322 322 321 318 315 312 313 316 314 311 313 321 328 339 5 29 52 42 34 44 13 287 261 257 249 242 239 239 241 243 242 242 246 251 257 263 263 266 270 246 234 230 228 226 222 220 224 228 227 228 231 231 225 223 221 219 222 220 214 213 223 228 230 233 228 222 218 211 206 210 216 218 216 216 215 205 197
305 305 305 304 305 307 310 312 315 316 318 320 319 317 314 311 310 310 313 314 311 312 314 317 323 335 354 28 42 54 50 4 312 284 259 248 242 239 239 242 241 241 244 247 250 253 257 260 263 264 245 226 222 223 223 220 220 226 228 226 228 231 229 226 224 223 225 225 222 220 219 224 230 231 235 234 226 223 217 212 212 213 213 211 212 216 212 204
303 302 302 302 302 304 306 308 312 314 316 316 315 312 308 306 306 306 309 310 306 305 305 309 316 315 317 338 12 43 42 20 342 270 239 231 230 229 229 231 233 237 240 241 245 249 250 250 252 252 242 228 226 224 219 216 220 228 229 227 229 229 227 226 225 225 229 229 227 226 222 223 229 229 233 236 230 227 225 222 218 211 210 211 208 210 213 211
301 300 299 298 299 301 303 305 308 311 312 312 312 309 302 300 301 302 304 304 298 296 296 298 302 303 303 303 338 43 39 24 239 210 215 219 220 219 220 221 223 228 232 238 245 251 249 246 246 246 239 234 235 232 223 215 219 227 228 229 231 230 229 229 229 229 229 230 230 228 222 222 226 226 226 231 232 230 229 228 226 219 215 217 213 209 210 213
298 297 295 295 296 298 299 301 304 307 308 308 309 306 298 295 297 299 301 295 288 289 290 287 292 298 296 294 318 33 54 12 216 195 203 212 210 214 219 219 222 224 226 235 245 248 247 246 242 239 239 240 239 236 230 219 218 224 226 230 234 233 231 229 228 229 228 228 229 226 222 220 225 226 224 228 233 232 231 231 233 231 224 224 225 220 214 213
295 294 292 291 292 294 296 297 299 301 303 304 304 302 296 292 291 294 293 285 281 285 284 281 287 294 293 296 310 338 5 312 218 195 201 209 208 213 216 220 226 227 229 235 241 245 247 246 244 239 235 237 241 240 236 224 220 222 223 228 235 237 237 233 231 231 229 228 228 225 222 219 223 226 224 227 231 231 235 235 237 239 234 228 227 227 224 217
293 291 290 289 289 290 292 292 294 296 297 297 299 297 294 290 286 285 283 279 277 280 280 281 285 286 286 290 295 301 313 289 245 200 197 202 210 217 217 222 222 216 230 236 235 243 246 243 241 241 237 232 238 242 239 230 225 224 223 225 232 239 240 238 236 234 231 232 232 229 226 220 222 226 224 225 228 229 233 236 236 240 240 234 228 228 229 222
291 289 288 288 287 287 288 288 289 291 291 292 294 292 289 286 283 279 276 275 275 275 277 279 277 275 277 284 286 286 285 274 258 230 207 203 214 226 227 230 223 215 224 228 226 234 249 252 244 236 236 231 231 238 239 237 229 225 226 226 227 236 243 243 241 236 231 234 237 233 231 226 225 228 227 226 228 229 233 235 237 240 244 243 233 228 231 227
289 287 286 285 285 285 284 284 285 286 287 287 287 287 284 281 278 275 271 271 272 272 274 273 268 267 267 272 278 279 276 265 254 237 221 214 222 232 234 233 228 228 229 228 228 221 222 252 246 232 233 234 230 233 234 236 237 231 230 228 224 229 239 242 244 241 233 232 236 235 232 231 230 231 229 229 229 229 233 237 240 242 245 249 241 229 230 230
287 285 283 282 282 281 281 281 282 283 283 284 283 282 279 276 275 271 268 269 269 269 270 267 263 262 264 265 269 274 271 261 255 244 229 223 226 231 233 233 231 232 226 223 233 226 220 242 246 233 234 235 233 235 232 233 242 236 231 231 230 230 233 230 232 238 233 231 237 240 236 231 233 233 228 228 230 229 232 237 239 242 243 247 247 239 232 229
284 282 280 278 277 277 277 277 278 279 280 281 279 276 274 273 271 268 267 267 267 268 268 265 261 259 261 262 265 270 268 261 260 253 240 232 232 233 236 237 235 234 229 226 232 229 228 245 246 238 237 235 233 238 234 227 232 238 238 237 234 233 237 234 233 239 238 233 236 241 240 234 234 235 226 223 226 227 229 232 234 239 241 243 246 247 244 236
281 279 277 275 274 273 273 273 274 276 277 277 276 274 273 271 268 266 265 265 265 265 263 262 258 252 252 256 258 262 264 262 259 254 247 241 240 240 240 239 237 238 237 236 236 231 232 249 249 241 241 239 234 236 239 233 229 238 248 243 237 236 239 237 235 241 243 238 237 239 237 231 229 226 218 216 221 223 224 227 230 235 240 242 245 248 250 250
278 277 274 272 271 270 270 271 272 273 275 276 275 272 270 269 266 264 263 263 261 260 257 255 252 246 245 248 251 250 252 257 257 253 250 248 248 245 243 241 239 242 242 242 243 240 238 247 254 247 242 243 241 239 244 243 236 237 246 246 241 240 243 239 234 240 246 244 244 242 236 230 225 220 212 209 216 221 221 223 227 232 237 242 246 252 254 255
275 274 272 270 269 268 268 269 270 271 273 274 273 271 269 268 265 261 259 259 258 257 255 253 250 246 242 242 245 243 242 247 254 255 253 252 252 250 247 245 242 244 245 244 246 247 241 235 246 255 248 246 249 241 240 246 242 241 246 248 245 241 243 241 235 237 240 241 245 242 237 234 227 219 215 212 213 220 222 221 225 228 234 239 242 250 256 255
274 272 271 269 268 266 266 267 268 270 272 273 272 270 267 265 263 259 256 255 254 254 254 253 251 249 246 243 243 240 236 237 245 252 254 253 253 252 252 251 248 246 247 248 248 251 249 237 237 264 265 255 252 243 239 245 246 245 247 248 248 244 242 244 243 241 239 240 242 239 238 240 233 222 224 221 214 217 221 221 224 227 230 235 239 243 252 253
272 270 269 268 266 265 264 264 265 268 270 271 270 269 266 263 261 257 254 251 250 250 252 253 253 251 250 250 248 244 238 236 239 247 252 253 253 252 253 253 253 251 249 251 250 250 253 246 243 260 266 254 250 247 244 246 245 246 250 250 251 249 245 245 248 247 243 241 241 236 235 242 240 231 231 230 220 216 218 220 225 228 228 232 238 242 249 253
270 269 267 266 264 263 262 262 263 265 267 267 269 269 265 261 258 255 253 250 248 249 252 253 253 253 252 253 255 254 249 243 241 246 250 251 252 254 255 254 254 254 252 253 254 252 254 255 253 255 256 257 261 257 251 251 248 247 250 251 253 253 248 246 246 247 246 243 240 236 234 239 243 238 233 230 225 219 219 222 226 229 232 234 237 241 247 252
269 267 265 264 262 260 259 260 261 262 263 265 266 266 262 256 254 253 251 250 249 249 251 253 254 254 254 255 258 260 257 250 246 247 248 248 251 255 255 253 252 253 255 256 258 258 258 258 255 257 261 265 267 263 260 260 256 253 252 251 252 253 251 248 247 247 248 245 238 236 236 237 242 246 238 229 225 222 219 223 227 229 233 236 238 240 245 250
266 265 263 262 260 258 257 257 258 259 261 262 264 263 259 253 251 250 249 248 248 247 250 253 253 254 253 254 257 259 258 254 249 249 249 248 249 251 252 251 249 249 253 256 259 258 258 258 256 259 266 269 269 269 268 263 258 255 253 251 252 254 253 252 251 251 251 249 244 242 243 240 244 255 244 225 218 219 220 221 226 232 234 236 240 242 244 251
264 263 262 260 258 257 256 255 256 257 258 261 262 261 257 250 247 248 246 245 245 246 248 251 252 253 253 254 257 256 254 253 251 249 249 249 249 249 250 250 248 247 250 254 257 257 257 257 255 254 253 258 269 269 264 260 258 256 256 254 253 253 252 251 251 250 251 253 254 253 252 250 255 265 252 226 212 212 217 219 223 232 236 236 240 244 246 251
265 262 260 258 257 256 255 254 254 255 256 257 258 257 252 246 244 244 243 241 241 243 246 249 251 252 253 255 257 257 255 254 252 248 247 248 249 250 249 248 247 248 249 253 256 258 259 259 256 253 249 248 258 262 260 261 263 263 262 262 259 258 256 254 253 253 253 255 257 257 259 263 267 271 261 239 223 214 212 215 221 229 236 237 239 243 246 250
266 263 260 257 257 256 255 253 252 253 253 252 253 253 248 243 241 240 240 239 239 241 244 247 248 249 251 252 253 256 257 257 256 252 247 246 246 247 247 247 248 250 251 254 258 261 264 263 258 256 255 255 258 262 264 264 264 264 265 265 265 264 262 260 258 258 258 257 256 257 262 268 269 269 266 252 241 232 219 214 218 227 234 237 238 240 244 248
266 264 260 256 255 254 254 253 251 251 250 248 248 248 244 241 240 238 238 237 238 241 243 245 246 246 247 248 249 255 260 262 262 259 251 246 244 244 244 245 248 252 253 254 257 261 266 267 264 261 260 259 260 262 264 265 266 267 267 266 268 267 266 266 265 262 261 260 262 263 263 266 266 265 261 253 248 243 231 219 219 224 230 237 242 242 242 245
266 264 260 256 254 252 251 251 249 247 246 245 244 243 240 239 238 237 237 236 237 240 242 244 245 243 243 245 248 255 262 265 265 261 255 249 245 244 245 246 248 251 254 255 255 258 262 265 266 266 263 260 260 262 265 267 268 269 269 269 270 268 267 268 268 265 262 262 263 263 260 260 261 259 252 248 247 244 236 228 226 228 232 238 242 246 249 249
266 264 261 257 253 250 249 248 246 245 244 244 242 240 237 236 236 236 236 234 234 237 239 241 241 241 241 243 246 254 262 265 265 261 255 250 247 246 247 248 250 250 252 254 254 254 257 260 262 264 265 263 262 264 265 264 265 266 268 269 269 269 267 265 265 264 262 261 261 259 256 255 255 253 249 247 247 243 238 235 235 233 234 238 243 248 251 247
265 264 262 258 253 249 247 245 243 242 242 241 240 238 236 235 235 236 235 233 231 233 233 230 231 234 237 239 246 256 261 264 266 263 256 250 246 245 246 247 249 250 250 250 250 249 249 252 255 257 262 265 268 272 269 265 263 261 260 260 261 264 266 264 263 261 260 261 260 256 254 252 251 250 248 246 245 241 237 238 240 237 232 236 244 246 242 239
265 263 261 259 254 248 245 243 241 240 239 238 238 237 235 235 235 234 235 233 230 230 229 227 229 232 234 237 245 253 256 261 266 264 258 250 246 245 245 244 244 246 249 247 244 243 243 246 250 252 259 265 270 275 273 267 260 255 253 253 255 260 264 265 263 261 259 259 257 254 252 250 249 248 247 248 244 238 236 239 240 236 230 230 238 241 241 248
Height
5902 5901 5901 5901 5901 5901 5900 5900 5900 5900 5900 5899 5899 5899 5899 5899 5898 5898 5898 5898 5898 5898 5897 5897 5897 5897 5897 5897 5897 5897 5898 5898 5898 5899 5899 5900 5901 5901 5902 5902 5903 5903 5904 5904 5904 5905 5906 5907 5908 5909 5909 5910 5910 5911 5911 5911 5912 5912 5912 5912 5912 5912 5911 5911 5911 5910 5911 5911 5911 5911 5911 5910 5910 5910 5910 5910 5909 5909 5909 5908 5907 5907 5908 5908 5908 5909 5908 5907
5902 5902 5902 5901 5901 5901 5901 5900 5900 5900 5899 5899 5899 5898 5898 5898 5898 5898 5897 5897 5897 5897 5896 5896 5896 5896 5896 5896 5896 5896 5897 5897 5897 5897 5898 5899 5900 5900 5901 5901 5902 5903 5903 5903 5903 5903 5904 5906 5907 5908 5908 5909 5910 5910 5910 5911 5911 5911 5911 5912 5912 5911 5911 5911 5911 5910 5910 5910 5911 5911 5911 5910 5910 5910 5910 5910 5910 5909 5909 5909 5908 5907 5908 5908 5908 5909 5909 5908
5902 5902 5902 5901 5901 5901 5901 5900 5900 5900 5899 5899 5898 5898 5898 5897 5897 5897 5896 5896 5896 5895 5895 5895 5895 5895 5894 5895 5895 5895 5895 5895 5896 5896 5897 5897 5898 5899 5900 5900 5901 5902 5902 5902 5902 5902 5903 5904 5905 5906 5907 5908 5909 5909 5909 5910 5910 5911 5911 5911 5911 5911 5911 5911 5911 5910 5910 5910 5910 5910 5911 5910 5910 5910 5910 5910 5910 5910 5909 5909 5909 5908 5908 5908 5908 5909 5909 5908
5902 5902 5902 5901 5901 5901 5900 5900 5900 5899 5899 5898 5898 5897 5897 5897 5896 5896 5895 5895 5895 5894 5894 5894 5893 5893 5893 5893 5893 5893 5893 5893 5894 5895 5895 5896 5896 5897 5898 5899 5899 5900 5901 5901 5901 5901 5902 5903 5904 5905 5906 5907 5908 5908 5908 5909 5909 5910 5910 5910 5910 5911 5911 5911 5911 5910 5910 5910 5910 5910 5910 5910 5909 5910 5910 5910 5910 5910 5909 5909 5909 5909 5909 5909 5909 5909 5909 5909
5902 5902 5902 5901 5901 5901 5900 5900 5899 5899 5898 5898 5897 5897 5896 5896 5895 5895 5894 5894 5893 5893 5893 5892 5892 5891 5891 5891 5891 5891 5891 5891 5892 5893 5893 5894 5894 5895 5896 5897 5898 5898 5899 5900 5900 5900 5900 5901 5902 5904 5905 5907 5907 5907 5907 5908 5908 5909 5909 5909 5910 5910 5910 5910 5910 5910 5910 5910 5909 5909 5909 5909 5909 5909 5910 5910 5909 5910 5909 5909 5909 5909 5909 5909 5909 5909 5909 5909
5902 5901 5901 5901 5901 5900 5900 5899 5899 5898 5898 5897 5896 5896 5895 5894 5894 5893 5893 5892 5892 5891 5891 5890 5890 5889 5889 5889 5889 5889 5889 5889 5890 5891 5891 5892 5892 5893 5894 5895 5896 5897 5898 5898 5898 5898 5899 5900 5901 5902 5904 5905 5906 5906 5906 5907 5907 5908 5908 5908 5908 5908 5909 5909 5909 5909 5909 5909 5908 5908 5907 5908 5907 5907 5909 5910 5909 5910 5909 5909 5909 5909 5909 5910 5910 5910 5910 5910
5901 5901 5901 5900 5900 5900 5899 5899 5898 5897 5897 5896 5895 5895 5894 5893 5893 5892 5891 5891 5890 5889 5889 5888 5888 5887 5887 5887 5887 5887 5887 5887 5888 5888 5889 5889 5890 5891 5892 5893 5894 5895 5896 5896 5897 5897 5897 5898 5899 5901 5903 5904 5905 5905 5905 5906 5906 5907 5907 5907 5907 5907 5907 5907 5907 5907 5908 5908 5907 5906 5905 5906 5905 5906 5908 5909 5909 5909 5909 5909 5909 5909 5909 5909 5910 5910 5910 5910
5901 5901 5900 5900 5900 5899 5899 5898 5897 5896 5896 5895 5894 5893 5893 5892 5891 5890 5890 5889 5888 5887 5886 5886 5885 5885 5885 5884 5884 5884 5884 5885 5885 5886 5887 5887 5888 5889 5890 5890 5891 5893 5894 5894 5895 5895 5895 5897 5898 5900 5901 5903 5904 5904 5905 5905 5906 5906 5906 5905 5905 5905 5905 5905 5905 5906 5906 5906 5906 5904 5903 5903 5903 5904 5906 5908 5909 5909 5909 5909 5909 5909 5909 5909 5910 5910 5910 5911
5900 5900 5900 5899 5899 5898 5898 5897 5896 5896 5895 5894 5893 5892 5891 5891 5890 5889 5888 5887 5886 5885 5884 5883 5883 5882 5882 5882 5882 5882 5882 5883 5883 5884 5884 5885 5886 5887 5887 5888 5889 5890 5891 5892 5892 5893 5893 5895 5897 5899 5900 5901 5902 5903 5904 5905 5905 5905 5904 5904 5904 5904 5904 5904 5904 5904 5904 5904 5904 5903 5902 5901 5901 5903 5905 5906 5908 5908 5909 5909 5909 5909 5909 5909 5910 5910 5911 5911
5900 5899 5899 5899 5898 5898 5897 5896 5895 5895 5894 5893 5892 5891 5890 5889 5888 5887 5886 5884 5883 5882 5881 5881 5880 5880 5880 5880 5879 5879 5879 5880 5881 5881 5882 5883 5883 5884 5885 5886 5887 5888 5889 5890 5890 5891 5892 5894 5896 5898 5899 5900 5901 5902 5903 5903 5903 5903 5903 5903 5903 5903 5903 5903 5903 5903 5903 5902 5901 5901 5900 5899 5900 5902 5903 5905 5906 5908 5908 5909 5909 5909 5909 5909 5910 5911 5912 5912
5899 5899 5898 5898 5897 5897 5896 5895 5894 5893 5892 5892 5891 5890 5888 5887 5886 5885 5884 5882 5881 5880 5879 5879 5878 5878 5877 5877 5877 5877 5877 5878 5878 5879 5879 5880 5881 5882 5883 5884 5884 5885 5886 5888 5888 5889 5891 5893 5894 5897 5898 5899 5899 5900 5901 5902 5902 5902 5902 5902 5902 5902 5902 5902 5902 5902 5902 5901 5899 5899 5898 5898 5898 5900 5902 5904 5905 5907 5908 5909 5909 5909 5909 5909 5910 5911 5912 5912
5898 5898 5897 5897 5896 5896 5895 5894 5893 5892 5891 5890 5889 5888 5887 5886 5884 5883 5881 5880 5879 5878 5877 5877 5876 5876 5875 5875 5875 5874 5875 5875 5875 5876 5877 5878 5879 5880 5880 5881 5882 5883 5884 5885 5886 5887 5889 5891 5893 5896 5897 5898 5898 5899 5899 5900 5900 5901 5901 5901 5901 5901 5901 5901 5901 5901 5901 5900 5899 5898 5898 5897 5896 5898 5902 5904 5905 5906 5908 5908 5909 5909 5909 5909 5910 5911 5912 5913
5898 5897 5897 5896 5895 5894 5894 5893 5892 5891 5890 5889 5888 5886 5885 5884 5882 5881 5880 5878 5877 5876 5875 5875 5874 5874 5873 5873 5872 5872 5872 5873 5873 5874 5874 5875 5876 5877 5878 5879 5880 5881 5882 5883 5884 5886 5887 5889 5891 5894 5895 5896 5897 5897 5898 5898 5899 5900 5900 5901 5901 5901 5900 5900 5900 5900 5900 5899 5899 5898 5897 5897 5896 5898 5902 5903 5904 5906 5907 5908 5908 5909 5909 5909 5910 5911 5912 5913
5897 5896 5896 5895 5894 5893 5893 5892 5891 5890 5889 5887 5886 5885 5883 5882 5881 5879 5878 5877 5876 5874 5874 5873 5872 5872 5871 5871 5870 5870 5870 5871 5871 5871 5872 5873 5873 5874 5876 5877 5878 5879 5880 5881 5882 5884 5885 5887 5889 5891 5893 5894 5895 5896 5896 5897 5898 5899 5900 5901 5901 5900 5899 5899 5899 5899 5899 5899 5898 5898 5897 5897 5897 5899 5901 5903 5904 5905 5907 5907 5908 5908 5909 5909 5910 5911 5912 5913
5896 5895 5895 5894 5893 5892 5891 5891 5890 5889 5887 5886 5885 5883 5882 5880 5879 5878 5877 5875 5874 5873 5872 5871 5870 5870 5870 5869 5869 5869 5869 5869 5869 5869 5870 5870 5871 5872 5873 5874 5875 5876 5878 5879 5880 5882 5883 5885 5886 5889 5891 5892 5893 5894 5895 5896 5897 5898 5899 5900 5900 5899 5898 5898 5898 5899 5899 5899 5898 5898 5898 5897 5898 5900 5902 5903 5904 5905 5906 5907 5907 5908 5909 5909 5910 5911 5912 5913
5895 5894 5894 5893 5892 5891 5890 5889 5888 5887 5886 5885 5883 5882 5880 5879 5878 5877 5875 5874 5873 5872 5871 5870 5869 5868 5868 5868 5867 5867 5867 5867 5867 5868 5868 5869 5869 5870 5871 5872 5873 5874 5876 5877 5878 5880 5881 5883 5884 5886 5889 5890 5891 5893 5894 5895 5896 5896 5898 5899 5899 5898 5897 5897 5898 5898 5899 5899 5899 5898 5898 5899 5899 5901 5902 5903 5904 5905 5906 5907 5907 5908 5908 5909 5909 5910 5912 5912
5894 5893 5893 5892 5891 5890 5889 5888 5887 5886 5885 5883 5882 5881 5879 5878 5877 5875 5874 5873 5872 5871 5869 5868 5868 5867 5867 5866 5866 5866 5866 5866 5866 5867 5867 5867 5868 5868 5869 5870 5871 5872 5874 5875 5876 5878 5879 5880 5882 5884 5886 5888 5890 5892 5893 5894 5895 5895 5896 5898 5898 5898 5897 5897 5897 5898 5899 5899 5899 5899 5899 5900 5900 5901 5902 5903 5904 5905 5906 5906 5907 5908 5908 5909 5909 5910 5911 5912
5893 5892 5891 5891 5890 5889 5888 5887 5886 5885 5883 5882 5881 5879 5878 5877 5875 5874 5873 5872 5871 5869 5868 5867 5867 5866 5865 5865 5865 5865 5865 5865 5865 5865 5866 5866 5867 5867 5868 5869 5870 5870 5871 5872 5874 5875 5877 5878 5880 5881 5884 5886 5888 5889 5890 5890 5891 5893 5895 5896 5897 5897 5897 5896 5896 5898 5898 5899 5900 5900 5900 5901 5900 5901 5902 5903 5904 5905 5906 5906 5907 5908 5908 5909 5910 5910 5911 5912
5892 5891 5890 5889 5888 5887 5886 5886 5885 5883 5882 5881 5879 5878 5877 5876 5874 5873 5872 5871 5869 5868 5867 5866 5866 5865 5864 5864 5864 5864 5864 5864 5864 5865 5865 5865 5866 5866 5867 5867 5868 5869 5870 5871 5872 5874 5875 5876 5877 5879 5881 5883 5884 5886 5886 5887 5889 5891 5893 5894 5895 5895 5895 5895 5896 5897 5898 5898 5899 5900 5901 5901 5901 5901 5902 5903 5904 5905 5906 5907 5907 5908 5909 5909 5910 5910 5911 5912
5890 5890 5889 5888 5887 5886 5885 5884 5883 5882 5881 5880 5878 5877 5876 5875 5873 5872 5871 5870 5869 5867 5866 5866 5865 5864 5864 5863 5863 5863 5863 5863 5864 5864 5864 5865 5865 5866 5866 5867 5867 5868 5869 5870 5871 5872 5873 5874 5875 5876 5877 5879 5881 5882 5883 5885 5886 5888 5891 5892 5893 5894 5894 5895 5895 5896 5897 5898 5898 5899 5900 5901 5901 5902 5902 5903 5903 5905 5906 5907 5907 5908 5908 5909 5910 5910 5910 5912
5889 5888 5887 5886 5885 5884 5884 5883 5881 5880 5879 5878 5877 5876 5875 5874 5873 5871 5870 5869 5868 5867 5866 5865 5864 5864 5863 5863 5863 5862 5863 5863 5863 5863 5864 5864 5865 5865 5866 5866 5867 5867 5868 5869 5869 5870 5871 5872 5873 5873 5875 5877 5879 5880 5882 5884 5884 5886 5888 5890 5891 5892 5892 5893 5894 5895 5896 5897 5897 5898 5899 5900 5901 5902 5902 5903 5903 5904 5905 5906 5907 5907 5908 5908 5909 5910 5911 5912
5888 5887 5886 5885 5884 5883 5882 5881 5880 5879 5878 5877 5876 5875 5874 5873 5872 5870 5869 5868 5867 5866 5866 5865 5864 5863 5863 5862 5862 5862 5862 5862 5862 5863 5863 5864 5864 5865 5865 5866 5866 5867 5867 5868 5868 5869 5870 5870 5871 5872 5873 5875 5876 5878 5880 5882 5883 5884 5886 5888 5890 5890 5891 5892 5893 5894 5894 5895 5896 5897 5898 5900 5901 5902 5902 5903 5903 5903 5904 5905 5906 5907 5908 5908 5909 5910 5911 5912
5886 5885 5884 5883 5882 5881 5880 5879 5878 5877 5876 5875 5874 5873 5872 5871 5870 5869 5868 5867 5867 5866 5865 5864 5863 5862 5862 5862 5862 5861 5861 5861 5862 5862 5862 5863 5863 5864 5864 5865 5865 5866 5866 5867 5867 5868 5868 5869 5869 5870 5872 5873 5874 5876 5878 5880 5882 5883 5884 5887 5887 5887 5889 5891 5891 5892 5893 5894 5896 5897 5898 5900 5900 5901 5902 5902 5902 5903 5904 5905 5906 5907 5908 5908 5909 5910 5911 5912
5884 5883 5882 5881 5880 5879 5879 5878 5877 5876 5875 5874 5873 5872 5871 5870 5869 5868 5868 5867 5866 5865 5864 5864 5863 5862 5861 5861 5861 5861 5860 5861 5861 5861 5861 5862 5862 5863 5863 5864 5864 5865 5865 5866 5866 5867 5867 5868 5869 5869 5870 5871 5873 5874 5876 5878 5880 5881 5882 5884 5885 5885 5887 5888 5889 5891 5892 5893 5895 5896 5897 5899 5900 5900 5901 5901 5902 5902 5903 5904 5905 5906 5906 5907 5909 5909 5910 5912
5882 5881 5880 5879 5879 5878 5877 5876 5875 5874 5873 5872 5871 5871 5870 5869 5868 5867 5867 5866 5865 5864 5864 5863 5862 5861 5861 5860 5860 5860 5860 5860 5860 5860 5860 5861 5861 5862 5862 5863 5863 5863 5864 5865 5865 5866 5866 5867 5868 5869 5869 5870 5871 5873 5874 5876 5877 5879 5880 5881 5882 5882 5884 5887 5888 5890 5892 5893 5894 5895 5897 5898 5898 5899 5900 5901 5901 5901 5901 5902 5903 5904 5905 5906 5908 5909 5910 5911
5880 5879 5878 5877 5876 5876 5875 5874 5873 5872 5871 5871 5870 5869 5868 5868 5867 5866 5866 5865 5864 5863 5863 5862 5862 5861 5861 5860 5860 5859 5859 5859 5859 5859 5860 5860 5860 5861 5861 5861 5862 5862 5863 5864 5864 5865 5866 5866 5867 5868 5868 5869 5870 5871 5873 5874 5876 5878 5877 5878 5879 5880 5882 5885 5887 5889 5891 5890 5892 5894 5895 5896 5897 5897 5899 5899 5899 5900 5901 5901 5902 5903 5904 5905 5906 5907 5909 5910
5877 5877 5876 5875 5874 5874 5873 5872 5871 5871 5870 5869 5868 5868 5867 5867 5866 5865 5865 5864 5863 5863 5862 5861 5861 5860 5860 5859 5859 5859 5859 5859 5859 5859 5859 5859 5859 5860 5860 5861 5861 5861 5862 5863 5863 5863 5864 5865 5866 5867 5867 5868 5868 5869 5870 5872 5875 5875 5874 5876 5878 5878 5880 5883 5884 5887 5888 5888 5891 5893 5894 5895 5896 5897 5897 5898 5898 5898 5899 5900 5900 5901 5902 5903 5904 5906 5907 5908
5875 5874 5873 5873 5872 5872 5871 5870 5870 5869 5868 5867 5867 5866 5866 5865 5865 5864 5864 5863 5863 5862 5861 5860 5860 5859 5859 5858 5858 5858 5858 5858 5858 5858 5858 5858 5859 5859 5859 5859 5860 5860 5861 5862 5862 5862 5863 5864 5865 5865 5866 5867 5867 5868 5868 5870 5872 5872 5873 5875 5875 5876 5878 5880 5882 5884 5885 5888 5890 5892 5894 5895 5895 5895 5896 5896 5896 5897 5897 5898 5897 5898 5900 5901 5902 5903 5905 5907
5872 5872 5871 5870 5870 5869 5869 5868 5868 5867 5866 5866 5865 5865 5864 5864 5864 5863 5863 5862 5862 5861 5860 5860 5859 5859 5858 5858 5858 5858 5858 5858 5858 5858 5858 5858 5858 5858 5858 5858 5858 5859 5860 5860 5860 5861 5862 5862 5863 5864 5865 5866 5866 5866 5867 5869 5870 5870 5872 5873 5873 5875 5877 5878 5880 5882 5884 5887 5888 5889 5892 5893 5893 5894 5894 5894 5894 5895 5896 5896 5896 5897 5898 5899 5900 5901 5903 5904
5870 5869 5868 5868 5867 5867 5867 5866 5866 5865 5865 5864 5863 5863 5863 5863 5862 5862 5861 5861 5861 5860 5860 5859 5859 5858 5857 5857 5857 5857 5857 5857 5857 5857 5857 5857 5857 5857 5857 5857 5857 5858 5859 5859 5860 5860 5860 5861 5862 5863 5864 5864 5865 5865 5866 5867 5868 5869 5870 5871 5872 5874 5876 5878 5880 5881 5883 5885 5885 5887 5890 5891 5891 5891 5892 5892 5892 5893 5894 5894 5895 5896 5897 5898 5899 5900 5901 5903
5867 5866 5866 5865 5865 5865 5865 5864 5864 5863 5863 5862 5862 5861 5861 5861 5861 5860 5860 5860 5860 5859 5859 5858 5857 5857 5857 5856 5856 5857 5857 5857 5856 5856 5856 5856 5856 5856 5856 5856 5857 5857 5858 5859 5859 5859 5859 5860 5860 5861 5862 5863 5864 5864 5865 5866 5867 5867 5869 5870 5872 5873 5875 5877 5879 5880 5882 5882 5882 5884 5886 5888 5889 5889 5890 5890 5890 5892 5892 5893 5894 5894 5895 5896 5898 5899 5900 5901
5864 5864 5863 5863 5863 5863 5862 5862 5862 5861 5861 5860 5860 5860 5859 5859 5859 5859 5858 5858 5858 5858 5858 5857 5856 5856 5856 5855 5855 5856 5856 5856 5856 5856 5855 5855 5855 5855 5855 5856 5856 5857 5858 5858 5858 5858 5858 5858 5859 5860 5861 5862 5862 5863 5864 5865 5865 5867 5868 5869 5871 5872 5873 5876 5877 5879 5880 5880 5880 5881 5883 5885 5886 5885 5887 5888 5888 5890 5891 5892 5892 5893 5894 5895 5895 5896 5897 5899
5862 5861 5860 5860 5860 5860 5860 5860 5860 5859 5859 5859 5858 5858 5858 5857 5857 5857 5857 5857 5857 5857 5856 5856 5855 5855 5855 5854 5854 5855 5855 5855 5855 5855 5854 5854 5855 5854 5855 5855 5855 5856 5857 5857 5858 5858 5858 5858 5858 5858 5859 5860 5861 5862 5863 5864 5864 5865 5867 5868 5870 5872 5873 5874 5876 5877 5878 5878 5878 5879 5881 5883 5883 5882 5884 5886 5887 5888 5889 5890 5891 5891 5892 5893 5893 5894 5895 5897
5859 5858 5857 5857 5857 5857 5858 5857 5857 5857 5857 5857 5856 5856 5856 5856 5855 5855 5855 5855 5855 5855 5855 5855 5854 5854 5854 5853 5853 5854 5854 5854 5854 5854 5853 5854 5854 5854 5854 5854 5854 5854 5855 5856 5857 5858 5858 5858 5856 5857 5857 5858 5859 5860 5861 5862 5863 5864 5865 5867 5868 5871 5872 5874 5875 5876 5876 5876 5875 5877 5879 5881 5881 5881 5882 5883 5885 5886 5887 5888 5890 5890 5890 5891 5891 5891 5893 5895
5855 5855 5854 5854 5854 5854 5855 5855 5855 5855 5855 5854 5854 5854 5854 5854 5853 5853 5853 5853 5853 5853 5853 5853 5853 5853 5853 5852 5852 5852 5853 5853 5853 5853 5853 5853 5853 5853 5852 5852 5853 5853 5853 5855 5855 5855 5857 5856 5854 5855 5856 5857 5858 5858 5860 5862 5863 5863 5864 5865 5867 5868 5869 5871 5872 5872 5873 5873 5873 5874 5877 5878 5879 5880 5880 5882 5883 5885 5886 5887 5888 5888 5888 5889 5888 5889 5891 5893
5852 5852 5851 5851 5851 5851 5851 5852 5852 5852 5852 5852 5852 5852 5851 5851 5851 5851 5851 5851 5851 5852 5852 5852 5852 5852 5852 5851 5851 5851 5851 5852 5852 5852 5852 5852 5851 5851 5851 5851 5851 5851 5851 5852 5852 5854 5855 5854 5853 5854 5854 5855 5856 5857 5858 5860 5862 5862 5863 5863 5864 5865 5865 5867 5868 5868 5869 5871 5871 5872 5874 5876 5877 5878 5879 5880 5881 5882 5884 5885 5886 5887 5887 5887 5887 5888 5889 5890
5849 5848 5848 5847 5847 5848 5848 5848 5849 5849 5849 5849 5849 5849 5849 5849 5849 5849 5849 5849 5850 5850 5850 5850 5850 5851 5850 5850 5850 5849 5850 5850 5850 5850 5850 5850 5850 5850 5850 5850 5850 5850 5850 5850 5850 5851 5853 5852 5851 5852 5853 5853 5854 5855 5856 5858 5859 5860 5861 5861 5861 5863 5863 5865 5866 5866 5867 5868 5869 5870 5872 5873 5874 5875 5876 5878 5878 5880 5882 5883 5884 5885 5885 5886 5886 5886 5887 5887
5845 5844 5844 5844 5844 5844 5844 5845 5845 5845 5846 5846 5846 5846 5846 5846 5846 5847 5847 5847 5848 5848 5848 5848 5849 5849 5849 5849 5848 5848 5848 5848 5849 5849 5849 5849 5848 5848 5848 5848 5848 5848 5848 5848 5848 5849 5851 5851 5850 5850 5851 5852 5853 5854 5855 5855 5856 5858 5859 5859 5860 5861 5861 5862 5864 5864 5865 5866 5867 5868 5869 5870 5871 5873 5874 5875 5876 5877 5879 5881 5882 5883 5884 5884 5885 5885 5885 5885
5841 5841 5840 5840 5841 5841 5841 5841 5841 5842 5842 5843 5843 5842 5842 5843 5844 5844 5845 5845 5845 5845 5846 5846 5846 5847 5847 5847 5846 5846 5846 5847 5847 5847 5847 5847 5847 5847 5846 5846 5847 5847 5847 5847 5847 5847 5849 5851 5850 5848 5849 5851 5852 5853 5854 5853 5854 5855 5856 5857 5858 5859 5859 5859 5861 5862 5862 5864 5865 5866 5867 5867 5868 5871 5871 5872 5873 5874 5876 5878 5879 5881 5882 5882 5883 5883 5883 5883
5837 5837 5836 5837 5837 5837 5837 5837 5838 5838 5839 5839 5839 5839 5839 5840 5841 5842 5842 5842 5843 5843 5843 5843 5844 5844 5844 5845 5844 5844 5844 5845 5845 5845 5845 5845 5845 5845 5845 5845 5845 5845 5845 5845 5845 5846 5846 5849 5850 5847 5848 5850 5850 5850 5851 5851 5852 5853 5854 5855 5856 5856 5857 5857 5858 5859 5859 5861 5861 5863 5865 5864 5865 5869 5870 5870 5871 5872 5874 5876 5877 5878 5880 5880 5881 5881 5881 5881
5832 5832 5832 5833 5833 5833 5834 5834 5834 5834 5835 5835 5835 5835 5836 5836 5837 5838 5839 5839 5840 5840 5840 5841 5841 5842 5842 5842 5842 5842 5842 5843 5843 5843 5843 5843 5843 5843 5843 5843 5843 5843 5844 5844 5844 5845 5845 5846 5847 5846 5847 5849 5847 5847 5849 5849 5850 5851 5851 5852 5853 5854 5855 5855 5856 5856 5857 5858 5858 5859 5862 5861 5862 5866 5868 5868 5869 5869 5871 5873 5874 5876 5878 5878 5879 5879 5879 5879
5827 5828 5828 5829 5829 5829 5829 5830 5830 5831 5831 5831 5831 5831 5832 5833 5834 5834 5835 5836 5837 5837 5837 5838 5838 5839 5839 5839 5840 5840 5840 5840 5840 5840 5840 5841 5841 5841 5841 5841 5841 5841 5842 5842 5843 5843 5843 5844 5845 5845 5846 5846 5845 5846 5847 5847 5848 5849 5849 5850 5851 5852 5852 5853 5854 5854 5854 5855 5855 5856 5858 5858 5859 5863 5864 5865 5866 5867 5868 5870 5872 5874 5875 5876 5876 5877 5878 5878
5822 5823 5824 5824 5824 5825 5825 5825 5826 5827 5827 5827 5827 5827 5829 5830 5830 5831 5832 5832 5833 5834 5834 5835 5835 5836 5836 5837 5837 5837 5837 5837 5838 5838 5838 5838 5838 5838 5839 5839 5839 5839 5840 5840 5841 5842 5842 5842 5843 5843 5843 5843 5843 5844 5845 5845 5846 5847 5847 5848 5848 5849 5850 5851 5851 5851 5852 5852 5853 5854 5855 5855 5857 5859 5861 5862 5863 5864 5866 5868 5870 5871 5872 5873 5874 5875 5876 5876
5817 5818 5819 5819 5820 5820 5821 5821 5822 5822 5823 5823 5823 5824 5825 5826 5826 5827 5828 5829 5830 5831 5831 5831 5832 5833 5834 5834 5835 5835 5835 5835 5835 5835 5835 5835 5835 5836 5836 5837 5837 5837 5838 5838 5839 5840 5840 5840 5841 5842 5842 5842 5842 5842 5843 5843 5844 5844 5844 5845 5846 5846 5847 5848 5848 5848 5849 5849 5851 5852 5851 5852 5854 5856 5857 5858 5859 5860 5862 5865 5867 5868 5869 5871 5872 5872 5874 5875
5812 5812 5813 5814 5815 5815 5816 5817 5818 5818 5818 5819 5819 5820 5821 5822 5822 5823 5825 5826 5827 5827 5828 5828 5829 5830 5831 5832 5832 5832 5833 5833 5833 5833 5833 5833 5833 5833 5834 5834 5835 5835 5835 5836 5837 5837 5838 5839 5839 5840 5841 5842 5841 5841 5840 5840 5840 5841 5841 5842 5843 5844 5844 5844 5844 5845 5846 5846 5847 5849 5848 5848 5851 5852 5852 5854 5856 5857 5859 5861 5864 5865 5866 5868 5869 5870 5871 5872
5807 5807 5808 5809 5810 5811 5811 5812 5813 5813 5814 5815 5815 5816 5817 5818 5819 5820 5821 5822 5823 5824 5825 5825 5826 5827 5828 5829 5829 5829 5830 5830 5830 5830 5830 5830 5830 5831 5831 5832 5832 5832 5833 5834 5834 5835 5836 5837 5837 5838 5838 5838 5838 5838 5837 5837 5838 5838 5838 5839 5840 5840 5841 5841 5841 5841 5842 5843 5843 5843 5844 5845 5847 5848 5849 5850 5853 5855 5856 5858 5860 5862 5864 5866 5867 5868 5869 5870
5801 5802 5804 5805 5805 5806 5807 5808 5809 5809 5810 5811 5811 5812 5813 5814 5815 5816 5818 5819 5820 5821 5822 5822 5823 5825 5826 5826 5826 5826 5827 5827 5827 5827 5828 5828 5828 5828 5829 5829 5830 5830 5831 5832 5832 5833 5834 5834 5835 5835 5835 5835 5835 5835 5835 5835 5835 5835 5836 5836 5837 5837 5837 5838 5838 5839 5840 5840 5839 5840 5841 5842 5843 5845 5846 5847 5849 5852 5854 5855 5857 5860 5862 5863 5864 5866 5867 5868
5796 5797 5799 5800 5800 5801 5802 5803 5804 5805 5806 5806 5807 5808 5809 5810 5811 5813 5814 5815 5817 5818 5819 5820 5821 5822 5823 5823 5823 5823 5824 5824 5824 5824 5825 5825 5825 5825 5826 5827 5827 5828 5829 5829 5830 5831 5831 5832 5832 5832 5833 5832 5832 5832 5832 5832 5832 5833 5833 5834 5834 5834 5834 5834 5835 5835 5836 5836 5835 5837 5839 5839 5839 5842 5843 5844 5846 5849 5851 5853 5855 5857 5859 5860 5862 5863 5865 5866
5792 5792 5793 5795 5796 5797 5798 5799 5800 5801 5801 5802 5803 5804 5805 5806 5808 5809 5811 5812 5814 5814 5815 5817 5818 5819 5819 5820 5820 5820 5821 5821 5821 5822 5822 5822 5822 5822 5823 5824 5825 5826 5826 5827 5828 5829 5829 5829 5830 5830 5830 5830 5830 5830 5830 5830 5830 5830 5831 5831 5831 5831 5831 5831 5831 5832 5833 5832 5833 5835 5836 5836 5836 5838 5840 5841 5843 5846 5849 5850 5852 5854 5856 5857 5859 5861 5863 5864
5787 5787 5789 5790 5791 5792 5793 5794 5795 5796 5797 5798 5799 5800 5802 5803 5804 5805 5807 5809 5811 5811 5813 5814 5815 5815 5816 5816 5817 5818 5818 5818 5819 5819 5819 5819 5820 5820 5821 5822 5822 5823 5824 5825 5825 5826 5827 5827 5828 5828 5828 5828 5828 5828 5828 5828 5828 5828 5828 5828 5828 5828 5828 5828 5828 5828 5829 5829 5830 5832 5832 5832 5834 5835 5837 5838 5840 5843 5846 5848 5849 5850 5852 5854 5856 5859 5861 5861
5783 5783 5784 5785 5787 5788 5789 5790 5791 5792 5793 5794 5795 5796 5798 5799 5800 5802 5804 5806 5807 5808 5809 5811 5811 5812 5812 5813 5815 5815 5815 5815 5816 5816 5817 5817 5818 5818 5818 5819 5820 5820 5821 5822 5823 5824 5825 5826 5826 5826 5826 5826 5826 5826 5825 5825 5826 5826 5826 5826 5825 5825 5825 5825 5825 5825 5826 5826 5827 5828 5829 5829 5831 5832 5834 5835 5837 5839 5842 5845 5846 5847 5848 5850 5853 5856 5859 5857
5779 5779 5780 5781 5782 5784 5785 5786 5787 5788 5789 5790 5791 5793 5794 5795 5796 5799 5800 5802 5804 5805 5806 5807 5807 5808 5810 5811 5812 5812 5812 5813 5814 5814 5815 5815 5816 5816 5816 5816 5817 5818 5819 5820 5821 5822 5823 5823 5824 5824 5824 5824 5824 5824 5823 5823 5823 5823 5823 5823 5823 5823 5822 5822 5822 5822 5823 5823 5824 5825 5826 5826 5827 5829 5831 5831 5833 5835 5839 5842 5844 5844 5844 5846 5849 5853 5854 5853